Hourly Weather Rudlyve

Today, 10 April, Saturday

Time Temperature Precipitation Wind Pressure Humidity
00:00 +1°C° 0 mm 4 mps 750 mmHg 64%
01:00 +1°C° 0 mm 4 mps 750 mmHg 64%
02:00 +1°C° 0 mm 4 mps 749 mmHg 63%
03:00 +1°C° 0 mm 4 mps 749 mmHg 64%
04:00 +1°C° 0 mm 4 mps 749 mmHg 65%
05:00 +1°C° 0 mm 4 mps 749 mmHg 66%
06:00 +3°C° 0 mm 4 mps 749 mmHg 63%
07:00 +3°C° 0 mm 5 mps 749 mmHg 60%
08:00 +5°C° 0 mm 5 mps 749 mmHg 56%
09:00 +7°C° 0 mm 6 mps 749 mmHg 52%
10:00 +8°C° 0 mm 6 mps 749 mmHg 49%
11:00 +10°C° 0 mm 7 mps 749 mmHg 45%
12:00 +11°C° 0 mm 7 mps 748 mmHg 44%
13:00 +13°C° 0 mm 6 mps 748 mmHg 43%
14:00 +14°C° 0 mm 6 mps 748 mmHg 42%
15:00 +14°C° 0 mm 6 mps 748 mmHg 44%
16:00 +14°C° 0 mm 5 mps 748 mmHg 46%
17:00 +14°C° 0 mm 4 mps 748 mmHg 47%
18:00 +12°C° 0 mm 4 mps 748 mmHg 54%
19:00 +10°C° 0 mm 4 mps 748 mmHg 60%
20:00 +8°C° 0 mm 3 mps 749 mmHg 66%
21:00 +8°C° 0 mm 3 mps 749 mmHg 68%
22:00 +7°C° 0 mm 3 mps 749 mmHg 69%
23:00 +7°C° 0 mm 3 mps 750 mmHg 71%

Tomorrow, 11 April, Sunday

Time Temperature Precipitation Wind Pressure Humidity
00:00 +5°C° 0 mm 3 mps 750 mmHg 71%
01:00 +5°C° 0 mm 3 mps 750 mmHg 71%
02:00 +5°C° 0 mm 3 mps 750 mmHg 71%
03:00 +4°C° 0 mm 3 mps 750 mmHg 70%
04:00 +4°C° 0 mm 3 mps 750 mmHg 70%
05:00 +4°C° 0 mm 3 mps 750 mmHg 69%
06:00 +5°C° 0 mm 3 mps 751 mmHg 65%
07:00 +6°C° 0 mm 4 mps 751 mmHg 61%
08:00 +7°C° 0 mm 4 mps 751 mmHg 57%
09:00 +10°C° 0 mm 4 mps 751 mmHg 52%
10:00 +12°C° 0 mm 5 mps 751 mmHg 47%
11:00 +14°C° 0 mm 6 mps 751 mmHg 42%
12:00 +14°C° 0 mm 6 mps 751 mmHg 40%
13:00 +15°C° 0 mm 6 mps 751 mmHg 38%
14:00 +15°C° 0 mm 6 mps 751 mmHg 35%
15:00 +15°C° 0 mm 5 mps 750 mmHg 37%
16:00 +15°C° 0 mm 5 mps 750 mmHg 38%
17:00 +15°C° 0 mm 4 mps 750 mmHg 40%
18:00 +13°C° 0 mm 4 mps 750 mmHg 45%
19:00 +11°C° 0 mm 4 mps 750 mmHg 50%
20:00 +8°C° 0 mm 4 mps 751 mmHg 55%
21:00 +7°C° 0 mm 4 mps 751 mmHg 56%
22:00 +7°C° 0 mm 4 mps 751 mmHg 57%
23:00 +6°C° 0 mm 4 mps 751 mmHg 58%

Day after tomorrow, 12 April, Monday

Time Temperature Precipitation Wind Pressure Humidity
00:00 +6°C° 0 mm 4 mps 750 mmHg 60%
01:00 +5°C° 0 mm 4 mps 750 mmHg 61%
02:00 +5°C° 0 mm 4 mps 750 mmHg 63%
03:00 +4°C° 0 mm 4 mps 750 mmHg 63%
04:00 +4°C° 0 mm 4 mps 750 mmHg 63%
05:00 +4°C° 0 mm 4 mps 750 mmHg 64%
06:00 +5°C° 0 mm 4 mps 749 mmHg 62%
07:00 +6°C° 0 mm 4 mps 749 mmHg 60%
08:00 +7°C° 0 mm 4 mps 749 mmHg 58%
09:00 +9°C° 0 mm 5 mps 749 mmHg 54%
10:00 +10°C° 0 mm 5 mps 749 mmHg 49%
11:00 +13°C° 0 mm 5 mps 749 mmHg 44%
12:00 +14°C° 0 mm 5 mps 748 mmHg 43%
13:00 +15°C° 0 mm 5 mps 748 mmHg 41%
14:00 +16°C° 0 mm 5 mps 748 mmHg 39%
15:00 +17°C° 0 mm 4 mps 747 mmHg 41%
16:00 +17°C° 0 mm 4 mps 747 mmHg 42%
17:00 +17°C° 0 mm 3 mps 747 mmHg 43%
18:00 +16°C° 0 mm 3 mps 747 mmHg 48%
19:00 +13°C° 0 mm 3 mps 747 mmHg 52%
20:00 +11°C° 0 mm 3 mps 747 mmHg 57%
21:00 +11°C° 0 mm 3 mps 747 mmHg 57%
22:00 +10°C° 0 mm 3 mps 747 mmHg 58%
23:00 +10°C° 0 mm 3 mps 747 mmHg 58%

13 April, Tuesday

Time Temperature Precipitation Wind Pressure Humidity
00:00 +9°C° 0 mm 3 mps 746 mmHg 59%
01:00 +9°C° 0 mm 3 mps 746 mmHg 60%
02:00 +9°C° 0 mm 3 mps 746 mmHg 61%
03:00 +9°C° 0 mm 3 mps 746 mmHg 62%
04:00 +8°C° 0 mm 3 mps 746 mmHg 63%
05:00 +8°C° 0 mm 3 mps 746 mmHg 64%
06:00 +9°C° 0 mm 3 mps 746 mmHg 62%
07:00 +10°C° 0 mm 3 mps 746 mmHg 61%
08:00 +11°C° 0 mm 3 mps 746 mmHg 59%
09:00 +13°C° 0 mm 3 mps 746 mmHg 54%
10:00 +14°C° 0 mm 3 mps 746 mmHg 49%
11:00 +17°C° 0 mm 4 mps 745 mmHg 44%
12:00 +18°C° 0 mm 3 mps 745 mmHg 42%
13:00 +19°C° 0 mm 3 mps 745 mmHg 41%
14:00 +20°C° 0 mm 3 mps 745 mmHg 39%
15:00 +19°C° 0 mm 3 mps 744 mmHg 41%
16:00 +19°C° 0 mm 3 mps 744 mmHg 43%
17:00 +19°C° 0 mm 2 mps 743 mmHg 46%
18:00 +17°C° 0 mm 2 mps 743 mmHg 49%
19:00 +16°C° 0 mm 3 mps 743 mmHg 53%
20:00 +13°C° 0 mm 3 mps 743 mmHg 56%
21:00 +13°C° 0 mm 2 mps 743 mmHg 62%
22:00 +13°C° 0 mm 2 mps 743 mmHg 67%
23:00 +12°C° 0 mm 2 mps 743 mmHg 72%

14 April, Wednesday

Time Temperature Precipitation Wind Pressure Humidity
00:00 +10°C° 0 mm 2 mps 743 mmHg 77%
01:00 +10°C° 0 mm 2 mps 742 mmHg 83%
02:00 +9°C° 0 mm 2 mps 742 mmHg 88%
03:00 +9°C° 0 mm 2 mps 742 mmHg 89%
04:00 +8°C° 0 mm 2 mps 742 mmHg 90%
05:00 +8°C° 0 mm 2 mps 742 mmHg 92%
06:00 +8°C° 0 mm 3 mps 742 mmHg 90%
07:00 +8°C° 0 mm 3 mps 742 mmHg 88%
08:00 +8°C° 0 mm 3 mps 742 mmHg 86%
09:00 +8°C° 0.1 mm 3 mps 742 mmHg 85%
10:00 +8°C° 0.1 mm 3 mps 742 mmHg 84%
11:00 +8°C° 0.1 mm 3 mps 742 mmHg 82%
12:00 +8°C° 0 mm 3 mps 741 mmHg 82%
13:00 +8°C° 0 mm 3 mps 741 mmHg 81%
14:00 +8°C° 0 mm 3 mps 741 mmHg 81%
15:00 +7°C° 0.1 mm 4 mps 741 mmHg 82%
16:00 +6°C° 0.1 mm 4 mps 741 mmHg 84%
17:00 +6°C° 0.1 mm 4 mps 740 mmHg 85%
18:00 +5°C° 0.3 mm 4 mps 740 mmHg 87%
19:00 +4°C° 0.3 mm 4 mps 741 mmHg 90%
20:00 +4°C° 0.3 mm 4 mps 741 mmHg 92%
21:00 +4°C° 0.3 mm 4 mps 740 mmHg 92%
22:00 +4°C° 0.3 mm 4 mps 740 mmHg 93%
23:00 +4°C° 0.3 mm 4 mps 740 mmHg 94%

15 April, Thursday

Time Temperature Precipitation Wind Pressure Humidity
00:00 +4°C° 0.5 mm 4 mps 740 mmHg 94%
01:00 +4°C° 0.5 mm 4 mps 739 mmHg 95%
02:00 +3°C° 0.5 mm 4 mps 739 mmHg 95%
03:00 +3°C° 0.4 mm 4 mps 739 mmHg 95%
04:00 +3°C° 0.4 mm 4 mps 739 mmHg 96%
05:00 +3°C° 0.4 mm 4 mps 739 mmHg 96%
06:00 +3°C° 0.2 mm 4 mps 739 mmHg 96%
07:00 +4°C° 0.2 mm 4 mps 739 mmHg 96%
08:00 +4°C° 0.2 mm 4 mps 739 mmHg 96%
09:00 +4°C° 0.2 mm 4 mps 739 mmHg 95%
10:00 +4°C° 0.2 mm 4 mps 739 mmHg 95%
11:00 +4°C° 0.2 mm 4 mps 739 mmHg 95%
12:00 +5°C° 0.1 mm 5 mps 739 mmHg 94%
13:00 +5°C° 0.1 mm 5 mps 739 mmHg 93%
14:00 +4°C° 0.1 mm 6 mps 739 mmHg 92%
15:00 +4°C° 0.2 mm 6 mps 739 mmHg 93%
16:00 +4°C° 0.2 mm 6 mps 739 mmHg 93%
17:00 +3°C° 0.2 mm 7 mps 739 mmHg 94%
18:00 +3°C° 1.1 mm 6 mps 739 mmHg 95%
19:00 +3°C° 1.1 mm 6 mps 739 mmHg 95%
20:00 +2°C° 1.1 mm 6 mps 739 mmHg 96%
21:00 +3°C° 0.8 mm 6 mps 739 mmHg 96%
22:00 +3°C° 0.8 mm 5 mps 739 mmHg 96%
23:00 +3°C° 0.8 mm 5 mps 738 mmHg 96%
Show more